Lid_Strength_Index
-0 -1 -0 2 6 6 9 8 6 7 7 4 4 5 7 6 7 10 1 0 -0 -0 -1 -1 -1 -1 -1 -1 -1 -1 -1 -1 -1 -2 -2 -2 -2 -1 -1 -2 -2 -2 -1 -1 -1 -1 -1 -1 -1
-1 0 1 4 8 10 9 6 7 6 5 4 4 5 6 7 4 3 2 -0 -1 -1 -1 -1 -1 -1 -1 -1 -1 -1 -2 -1 -1 -2 -2 -2 -2 -2 -2 -2 -2 -1 -1 -1 -1 -1 -1 -1 -1
-0 0 5 5 7 10 9 7 6 5 4 5 5 4 5 6 3 2 0 -0 -0 -0 -1 -1 -1 -1 -1 -1 -1 -1 -2 -2 -1 -2 -2 -2 -1 -1 -1 -1 -1 -1 -1 -1 -1 -1 -1 -1 -1
1 2 3 7 8 7 7 6 5 5 4 4 4 6 4 2 2 1 -0 -0 -0 -0 -1 -1 -1 -1 -1 -1 -1 -1 -2 -2 -2 -2 -2 -1 -1 -1 -1 -1 -1 -1 -1 -1 -1 -1 -1 -1 -1
1 4 7 8 8 6 5 5 4 5 5 4 4 6 5 2 0 0 0 -0 0 -0 -1 -1 -1 -1 -1 -1 -1 -1 -2 -2 -2 -1 -1 -1 -1 -1 -1 -1 -1 -1 -1 -1 -1 -1 -1 -1 -1
6 3 8 9 8 6 5 4 4 5 4 4 5 6 5 1 1 0 -0 -0 -1 -0 -1 -1 -1 -1 -1 -1 -1 -1 -2 -2 -2 -1 -1 -1 -1 -1 -1 -1 -1 -1 -1 -1 -1 -1 -1 -1 -1
8 6 7 7 8 7 6 4 5 5 5 5 4 7 4 2 1 0 -0 -0 -0 -0 -1 -1 -1 -1 -1 -1 -1 -1 -1 -1 -2 -1 -1 -1 -1 -1 -1 -1 -1 -1 -1 -1 -1 -1 -1 -1 -1
3 4 7 7 8 8 5 4 4 4 5 3 3 7 6 2 1 0 -0 -0 -0 -0 -0 -1 -2 -2 -2 -2 -1 -1 -1 -1 -1 -1 -1 -1 -1 -1 -1 -1 -1 -1 -1 -1 -1 -1 -1 -1 -1
2 7 7 7 7 6 4 5 4 3 4 4 3 3 2 1 1 1 1 1 0 0 -0 -1 -1 -1 -2 -2 -1 -1 -1 -1 -1 -1 -1 -1 -2 -1 -2 -2 -1 -1 -1 -1 -1 -1 -1 -1 -2
4 6 6 4 4 5 5 5 5 5 5 5 4 3 2 1 2 2 2 2 1 1 0 -0 -0 -0 -1 -1 -2 -2 -2 -2 -2 -2 -2 -2 -3 -2 -2 -2 -1 -2 -1 -1 -2 -1 -2 -1 -1
4 6 5 5 4 4 5 5 4 5 6 5 5 4 3 2 2 2 2 2 1 0 0 -0 -0 -1 -1 -1 -1 -1 -1 -1 -1 -2 -3 -2 -1 -2 -1 -1 -1 -1 -2 -1 -1 -1 -1 -1 -1
5 4 4 4 4 4 5 4 5 5 5 3 3 3 3 3 3 2 2 2 1 1 0 -1 -1 -1 -1 -1 -1 -1 -1 -1 -1 -1 -2 -2 -1 -2 -2 -1 -1 -2 -2 -1 -1 -1 -2 -1 -1
5 5 4 4 4 4 4 5 6 6 4 3 3 3 3 3 2 2 1 1 1 1 0 -0 -1 -1 -1 -1 -1 -1 -1 -1 -1 -1 -2 -2 -1 -1 -1 -1 -1 -1 -2 -1 -1 -1 -1 -1 -1
4 4 4 4 4 4 5 5 5 5 3 4 3 3 3 3 2 2 2 1 1 1 0 -0 -1 -1 -2 -1 -1 -1 -1 -2 -2 -2 -2 -2 -1 -2 -1 -2 -1 -1 -1 -1 -1 -2 -1 -1 -1
4 6 5 4 4 4 4 6 7 4 4 4 4 3 3 3 2 2 1 1 1 0 0 0 -0 -1 -1 -1 -1 -2 -1 -1 -1 -1 -2 -2 -2 -2 -2 -1 -1 -1 -1 -2 -1 -1 -1 -0 -1
5 5 8 5 4 5 8 9 6 4 4 5 4 4 4 3 2 2 1 1 1 0 1 -0 -0 -0 -1 -1 -1 -1 -1 -1 -2 -1 -1 -2 -2 -3 -2 -0 -0 -1 -1 -1 -0 -0 -0 -0 0
6 8 8 7 4 6 8 8 6 4 4 5 4 4 4 3 2 2 1 1 1 0 0 0 -0 -0 -0 -1 -1 -1 -2 -1 -1 -2 -1 -2 -2 -2 -2 -1 -1 -2 -1 -1 -0 -0 0 1 0
8 8 7 8 6 5 7 8 6 4 4 5 4 4 4 4 3 2 1 1 0 0 -0 -0 -0 -1 -1 -2 -1 -1 -1 -1 -1 -1 -1 -2 -3 -2 -2 -2 -1 -2 -0 -0 -0 -0 -0 0 1
6 7 7 6 5 6 6 7 6 5 5 5 5 4 4 3 2 2 1 1 1 0 0 0 0 -0 -0 -0 0 -0 1 -0 -0 -2 -2 -2 -2 -2 -2 -1 -1 -1 -0 -0 -0 0 1 1 0
6 7 7 6 5 6 7 7 6 5 5 4 4 4 4 3 3 2 2 1 1 1 0 0 -0 -0 -0 -0 -1 -0 0 -0 -1 -1 -1 -2 -2 -2 -1 -1 -1 -1 -0 -0 -0 0 1 1 0
6 7 7 7 6 5 7 8 7 5 5 4 4 3 3 3 3 3 2 2 1 1 1 0 -0 -0 -0 -0 -0 -0 -0 -0 0 -0 -1 -1 -1 -2 -2 -2 -1 -1 -1 0 -0 -0 1 2 1
7 5 6 7 7 10 6 11 9 7 6 5 5 4 4 3 3 2 2 2 1 1 0 0 -0 -0 -0 -1 -1 -0 1 1 1 -0 -1 -1 -2 -2 -2 -2 -1 -1 -0 -0 -0 -0 0 1 2
7 5 6 6 7 8 8 10 9 7 8 6 5 4 4 3 3 3 2 2 1 1 1 0 -0 -1 -1 -1 -1 -0 -1 -0 -0 -0 -1 -2 -1 -2 -1 -1 -1 -1 -0 -1 -1 -0 -0 0 1
5 6 6 6 7 11 9 11 9 10 8 7 5 4 4 3 3 2 2 1 1 1 1 1 0 -0 -1 -1 -1 -1 -0 -0 0 0 1 0 -0 -1 -1 -1 -1 -1 -1 -1 -0 -1 -0 0 0
5 7 10 11 11 12 7 8 8 6 5 5 5 4 4 3 3 3 2 2 2 1 1 1 0 0 -1 -1 -1 -1 -0 -1 -0 -0 0 0 0 -0 -1 -1 -1 -1 -1 -1 -1 -1 -0 -0 0
6 7 10 13 12 10 7 10 8 5 4 4 4 4 3 3 3 3 2 2 2 1 1 0 1 1 -0 -1 -1 -1 -1 -0 -0 -1 0 0 0 -0 -1 -1 -1 -1 -1 -1 -1 -0 -0 -1 -0
7 8 6 8 8 10 9 7 5 5 5 5 4 4 4 4 3 3 2 2 2 1 1 1 0 0 -0 -0 -1 -0 -1 -1 -0 -1 -1 -0 -1 -1 -1 -1 -1 -1 -1 -1 -1 -0 -0 -0 -0
6 5 8 8 11 12 10 9 8 7 6 4 4 4 4 3 3 3 2 2 2 1 1 0 0 0 -0 -0 -0 -1 -1 -1 -1 -1 -1 -1 -1 -1 -1 -1 -1 -1 -1 -1 -1 -0 -1 -0 0
7 7 7 7 8 11 11 10 5 6 5 5 4 4 4 4 3 3 2 2 2 1 1 1 1 0 0 -0 -0 -1 -1 -1 -1 -1 -1 -1 -1 -1 -1 -1 -1 -1 -0 -1 -1 -0 -0 -0 0
5 6 7 9 10 9 9 9 5 5 4 4 4 4 3 3 3 3 2 2 2 2 1 1 1 1 0 -0 -0 -0 -1 -1 -0 -1 -1 -1 -1 -1 -1 -1 -0 -0 -1 -0 -0 0 -0 0 1